Location: Cazavet
(43.0017°N, 1.0431°E)
Time: 22:44:04
(UTC+00:00)

COSMO-SKYMED 1 - Pass Details

Date: 18 January 2026
Orbit: 578 x 579 km, 97.9° (Epoch: 11 February)

Event Time Altitude Azimuth Distance (km) Brightness Sun altitude
Rises 05:55:44 0° 184° (S) 2,783 6.0 -15.7°
Reaches altitude 10° 05:57:59 10° 192° (SSW) 1,888 5.1 -15.3°
Maximum altitude 06:01:50 39° 262° (W) 871 2.9 -14.6°
Enters shadow 06:04:58 15° 327° (NNW) 1,620 4.3 -14.1°
